DW5914 Weather Reports


Display with metric or nautical units.
time (UTC)temp
F
wind
direction
speed
MPH
gust
MPH
rain 1hr
in
rain 24hr
in
rain mn
in
humidity
%
barometer
mb
20260901204515 63 211 6.0 12.0 0.00 0.00 0.00 82 1010.7
20260901203018 63 223 0.0 8.0 0.00 0.00 0.00 83 1010.8
20260901201514 62 163 2.0 7.0 0.00 0.00 0.00 83 1010.9
20260901200013 62 176 2.0 11.0 0.00 0.00 0.00 83 1010.7
20260901194513 62 188 3.0 8.0 0.00 0.00 0.00 83 1010.8
20260901193013 63 183 1.0 8.0 0.00 0.00 0.00 82 1010.9
20260901191519 64 196 2.0 12.0 0.00 0.00 0.00 81 1010.8
20260901190010 64 118 4.0 9.0 0.00 0.00 0.00 80 1010.9
20260901184509 65 273 2.0 7.0 0.00 0.00 0.00 79 1010.9
20260901183006 64 318 3.0 7.0 0.00 0.00 0.00 79 1010.9
20260901181504 63 182 2.0 9.0 0.00 0.00 0.00 80 1011.0
20260901180002 63 168 4.0 10.0 0.00 0.00 0.00 79 1011.0
20260901174558 62 199 3.0 8.0 0.00 0.00 0.00 82 1011.0
20260901173102 61 172 3.0 6.0 0.00 0.00 0.00 82 1011.1
20260901171602 60 148 2.0 8.0 0.00 0.00 0.00 85 1011.2
20260901170050 59 142 1.0 9.0 0.00 0.00 0.00 85 1011.1
20260901164549 59 182 1.0 7.0 0.00 0.00 0.00 86 1011.2
20260901163050 59 73 3.0 7.0 0.00 0.00 0.00 87 1011.2
20260901161605 58 200 2.0 5.0 0.00 0.00 0.00 88 1011.2
20260901160054 58 163 0.0 3.0 0.00 0.00 0.00 89 1011.3
20260901154556 57 203 0.0 5.0 0.00 0.00 0.00 90 1011.3
20260901153052 56 180 3.0 7.0 0.00 0.00 0.00 92 1011.3
20260901151546 55 178 0.0 2.0 0.00 0.00 0.00 93 1011.4
20260901150044 55 184 0.0 0.0 0.00 0.00 0.00 93 1011.2
20260901144549 54 184 0.0 0.0 0.00 0.00 0.00 93 1011.1
20260901143047 54 184 0.0 0.0 0.00 0.00 0.00 93 1011.1
20260901141548 54 184 0.0 0.0 0.00 0.00 0.00 93 1010.9
20260901140040 54 184 1.0 6.0 0.00 0.00 0.00 93 1010.9
20260901134540 54 180 3.0 5.0 0.00 0.00 0.00 92 1010.8
20260901133037 54 175 3.0 5.0 0.00 0.00 0.00 92 1010.4
20260901131536 54 170 1.0 3.0 0.00 0.00 0.00 92 1010.4
20260901130035 54 170 0.0 4.0 0.00 0.00 0.00 92 1010.2
20260901124536 54 170 3.0 4.0 0.00 0.00 0.00 92 1010.3
20260901123034 54 184 3.0 4.0 0.00 0.00 0.00 92 1010.4
20260901121536 54 183 3.0 4.0 0.00 0.00 0.00 92 1010.2
20260901120032 54 182 3.0 4.0 0.00 0.00 0.00 91 1010.4
20260901114534 55 135 2.0 3.0 0.00 0.00 0.00 90 1010.4
20260901113028 55 135 2.0 3.0 0.00 0.00 0.00 89 1010.5
20260901111527 56 135 1.0 3.0 0.00 0.00 0.00 89 1010.5
20260901110026 57 135 0.0 0.0 0.00 0.00 0.00 89 1010.4
20260901104524 56 135 0.0 0.0 0.00 0.00 0.00 89 1010.4
20260901103023 56 135 2.0 3.0 0.00 0.00 0.00 87 1010.5
20260901101521 57 134 0.0 0.0 0.00 0.00 0.00 85 1010.5
20260901100020 57 134 0.0 0.0 0.00 0.00 0.00 86 1010.5
20260901094525 57 134 0.0 0.0 0.00 0.00 0.00 85 1010.4
20260901093018 57 134 0.0 0.0 0.00 0.00 0.00 85 1010.4
20260901091519 57 134 0.0 0.0 0.00 0.00 0.00 85 1010.4
20260901090014 57 134 0.0 0.0 0.00 0.00 0.00 85 1010.4
20260901084513 58 134 0.0 0.0 0.00 0.00 0.00 85 1010.3
20260901083013 58 134 0.0 0.0 0.00 0.00 0.00 83 1010.4
20260901081511 58 134 0.0 3.0 0.00 0.00 0.00 83 1010.3
20260901080015 58 134 0.0 0.0 0.00 0.00 0.00 83 1010.3
20260901074508 59 135 0.0 0.0 0.00 0.00 0.00 82 1010.2
20260901073005 59 135 0.0 0.0 0.00 0.00 0.00 81 1010.1
20260901071505 59 135 0.0 0.0 0.00 0.00 0.00 81 1010.2
20260901070002 59 135 0.0 0.0 0.00 0.00 0.00 81 1010.3
20260901064506 59 135 0.0 2.0 0.00 0.00 0.00 81 1010.4
20260901063002 59 135 2.0 3.0 0.00 0.00 0.00 81 1010.5
20260901061502 60 135 0.0 0.0 0.00 0.00 0.00 81 1010.5
20260901060000 60 134 0.0 0.0 0.00 0.00 0.00 81 1010.4
20260901054601 60 135 0.0 3.0 0.00 0.00 0.00 81 1010.5
20260901053105 59 134 1.0 3.0 0.00 0.00 0.00 81 1010.5
20260901051601 60 134 0.0 3.0 0.00 0.00 0.00 80 1010.4
20260901050059 60 92 1.0 5.0 0.00 0.00 0.00 79 1010.4
20260901044604 61 80 0.0 2.0 0.00 0.00 0.00 77 1010.3
20260901043059 61 80 0.0 3.0 0.00 0.00 0.00 78 1010.2
20260901041604 61 69 1.0 3.0 0.00 0.00 0.00 79 1010.1
20260901040058 61 47 0.0 3.0 0.00 0.00 0.00 82 1010.1
20260901034557 61 54 2.0 7.0 0.00 0.00 0.00 83 1010.1
20260901033116 61 32 1.0 6.0 0.00 0.00 0.00 83 1010.0
20260901031557 61 51 4.0 7.0 0.00 0.00 0.00 82 1010.0
20260901024556 62 355 5.0 10.0 0.00 0.00 0.00 78 1009.9
20260901023055 63 11 4.0 10.0 0.00 0.00 0.00 76 1009.9
20260901021602 63 341 3.0 9.0 0.00 0.00 0.00 75 1009.9
20260901020052 63 5 3.0 9.0 0.00 0.00 0.00 76 1010.2
20260901014551 63 51 5.0 11.0 0.00 0.00 0.00 76 1010.3
20260901013104 63 51 4.0 14.0 0.00 0.00 0.00 75 1010.3
20260901011609 63 355 3.0 10.0 0.00 0.00 0.00 75 1010.4
20260901010056 63 9 3.0 13.0 0.00 0.00 0.00 76 1010.4
20260901004548 64 355 4.0 9.0 0.00 0.00 0.00 76 1010.4
20260901003049 64 5 4.0 9.0 0.00 0.00 0.00 77 1010.5
20260901001548 64 355 3.0 8.0 0.00 0.00 0.00 77 1010.6
20260901000045 64 355 3.0 8.0 0.00 0.00 0.00 78 1010.7
20260831234545 63 28 4.0 9.0 0.00 0.00 0.00 79 1010.9
20260831233041 64 342 5.0 10.0 0.00 0.00 0.00 77 1011.1
20260831231541 64 51 4.0 10.0 0.00 0.00 0.00 78 1011.2
20260831230038 64 9 5.0 11.0 0.00 0.00 0.00 79 1011.5
20260831224536 63 5 6.0 9.0 0.00 0.00 0.00 81 1011.7
20260831223040 63 350 4.0 9.0 0.00 0.00 0.00 80 1011.8
20260831221539 63 22 5.0 10.0 0.00 0.00 0.00 82 1012.0
20260831220031 62 55 2.0 12.0 0.00 0.00 0.00 82 1012.2
20260831214529 63 355 5.0 10.0 0.00 0.00 0.00 81 1012.4
20260831213027 63 5 5.0 10.0 0.00 0.00 0.00 79 1012.6
20260831211535 63 51 4.0 10.0 0.00 0.00 0.00 79 1012.7
20260831210023 64 22 5.0 10.0 0.00 0.00 0.00 76 1012.9